Retour au catalogue

THORAD AGENA D DEB

ActifPO
NORAD 4950·DEBRIS·🇺🇸 United States

Lancé Apr 8, 1970 depuis Vandenberg Space Force Base

Loading…

Prochains Passages

TLE

Source: Space-Track
1 04950U 70025GL  26229.95730961 -.00000093  00000-0 -13305-3 0  9992
2 04950  99.8222 117.6732 0219154 237.5801 135.1076 13.10224256691596

Suivez THORAD AGENA D DEB en temps réel avec AllMySat

Download on the App Store